Starlink 30785

operational
NORAD ID: 58191 Int'l Des: 2023-167 Owner: SPXS Country: US Constellation: starlink
LEOCIRCULAR

关于 Starlink 30785

正在加载描述...

实时位置

正在加载3D地球...

即将过境

高度历史

Altitude vs Time

uPlot chart will show altitude changes over time

两行轨道根数

1 58191U 23167S 25257.38561357 -.00000249 00000-0 -33522-5 0 9999
2 58191 43.0057 23.9962 0001450 274.4385 85.6291 15.02534442104432
Epoch: Sep 14, 2025 • Age: 30 hours

当前状态

高度 560.8 km
速度 7.58 km/s
星下点 -12.53°S, 136.29°E
发射日期 Oct 30, 2023
运行时间 1.8 years
类型 internet

技术详情

分类 Payload
质量 730.00 kg
干质量 700.00 kg
总质量 730.00 kg
长度 0.30 m
直径 4.10 m
跨度 29.00 m
形状 Box + pan
制造商 SPXS
平台类型 Starlink V2M
阶段状态 In Orbit
所有者/国家 SPXS/US

大型星座

Loading constellations...